Regional Weather Roundup
Issued by NWS

Home | Current Version | Previous Version | Graphics & Text | Print | Product List | Glossary On
Versions: 1 2 3 4 5 6 7 8 9 10 11 12 13 14 15 16 17 18 19 20 21 22 23 24 25 26 27 28 29 30 31 32 33 34 35 36 37 38 39 40 41 42 43 44 45 46 47 48 49 50
000
ASUS43 KLSX 212307
RWRMO

WEATHER SUMMARY FOR MISSOURI
NATIONAL WEATHER SERVICE SPRINGFIELD MO
600 PM CDT THU SEP 21 2017

NOTE: "FAIR" INDICATES FEW OR NO CLOUDS BELOW 12,000 FEET WITH NO
       SIGNIFICANT WEATHER AND/OR OBSTRUCTIONS TO VISIBILITY.
       CURRENT SKY AND/OR WEATHER CONDITIONS ARE NOT AVAILABLE FOR
       CHILLICOTHE AND FARMINGTON.

MOZ001>031-035>038-043-044-053-054-220000-
...NORTHERN AND WESTERN MISSOURI...

CITY           SKY/WX    TMP DP  RH WIND       PRES   REMARKS
KANSAS CTY INT MOSUNNY   87  73  62 S18G26    29.84S HX  94
KANSAS C DTWN  MOSUNNY   91  73  55 SE18      29.83S HX  99
LEE`S SUMMIT   SUNNY     89  72  56 S16G28    29.87S HX  96
ST JOSEPH      MOSUNNY   89  74  60 S20G28    29.81S HX  98
CHILLICOTHE      N/A     89  71  55 S8G20     29.86S HX  95
KIRKSVILLE     SUNNY     89  68  49 S15       29.90F HX  93

$$
MOZ066>068-077>081-088>096-101>105-220000-
...SOUTHWEST MISSOURI...

CITY           SKY/WX    TMP DP  RH WIND       PRES   REMARKS
SPRINGFIELD    SUNNY     90  67  46 S8        29.93S HX  93
JOPLIN         SUNNY     87  72  60 S15       29.90F HX  93
BRANSON        MOSUNNY   90  64  43 S9G18     29.97F HX  91

$$
MOZ032>034-039>042-045>050-055>058-069>072-220000-
...CENTRAL MISSOURI...

CITY           SKY/WX    TMP DP  RH WIND       PRES   REMARKS
COLUMBIA       SUNNY     89  71  55 S8        29.93S HX  95
JEFFERSON CITY SUNNY     91  68  46 S6        29.90F HX  95
ROLLA          MOSUNNY   89  67  47 SE10      29.96F HX  92
SEDALIA        SUNNY     89  73  59 SE12      29.91F HX  97
WHITEMAN AFB   MOSUNNY   88  72  59 S9        29.87F HX  95
WARRENSBURG    MOSUNNY   88  70  55 SE9       29.87F HX  92
OSAGE BEACH    SUNNY     89  69  51 S7        29.93F HX  93

$$
MOZ051-052-059>065-220000-
...EAST CENTRAL MISSOURI...

CITY           SKY/WX    TMP DP  RH WIND       PRES   REMARKS
ST LOUIS INTL  PTSUNNY   88  70  55 SE13      29.96F HX  93
SPIRIT OF STL  PTSUNNY   89  72  56 E9        29.93F HX  96
ST CHARLES     CLOUDY    88  69  53 SE12      29.93F HX  92

$$
MOZ072>076-082>087-097>100-106>115-220000-
...SOUTH CENTRAL AND SOUTHEAST MISSOURI...

CITY           SKY/WX    TMP DP  RH WIND       PRES   REMARKS
CAPE GIRARDEAU SUNNY     87  68  52 SE8       29.97S HX  90
FARMINGTON     SUNNY     89  67  47 S9        29.99S HX  92
POPLAR BLUFF   SUNNY     90  69  50 SE6       29.96S HX  94
WEST PLAINS    SUNNY     89  65  44 S12       29.99F HX  91

$$



USA.gov is the U.S. government's official web portal to all federal, state and local government web resources and services.